GEFSCGP_prec_meanprecacc_156.txt.gz
Total_Precipitation_Accumulation
0.00 0.01 0.02 0.02 0.02 0.03 0.05 0.07 0.11 0.15 0.14 0.16 0.32 0.50 0.52 0.66 0.90 1.12 1.42 1.71 1.97 2.27 2.69 3.09 3.13 3.27 3.52 4.00 4.28 4.36 4.52 4.46 4.22 3.86 3.45 3.26 3.11 3.02 2.87 2.64 2.37 2.27 2.25 2.32
0.01 0.03 0.01 0.01 0.02 0.03 0.06 0.09 0.13 0.15 0.13 0.15 0.29 0.47 0.58 0.89 1.15 1.17 1.24 1.39 1.61 2.05 2.46 2.74 2.79 2.78 3.10 3.66 4.08 4.17 3.93 3.80 3.69 3.47 3.32 3.26 3.35 3.04 2.75 2.55 2.28 2.09 2.11 2.18
0.03 0.03 0.02 0.02 0.02 0.03 0.05 0.06 0.11 0.16 0.15 0.19 0.29 0.58 0.77 1.00 1.12 1.15 1.21 1.29 1.43 1.77 2.12 2.39 2.37 2.41 2.62 2.73 2.97 3.12 3.23 3.06 2.89 2.80 2.80 2.87 2.97 2.69 2.41 2.28 2.15 1.96 1.86 1.82
0.03 0.03 0.03 0.04 0.04 0.04 0.06 0.07 0.06 0.08 0.14 0.26 0.38 0.89 1.10 1.01 1.08 1.21 1.21 1.21 1.42 1.74 1.71 1.81 1.91 2.02 2.24 2.31 2.42 2.47 2.48 2.53 2.43 2.39 2.37 2.26 2.17 2.03 1.94 1.92 1.85 1.81 1.73 1.65
0.05 0.04 0.03 0.05 0.05 0.04 0.05 0.05 0.06 0.09 0.17 0.28 0.38 0.69 1.04 1.28 1.36 1.18 1.10 1.05 1.25 1.37 1.26 1.29 1.41 1.45 1.60 1.69 1.84 1.96 2.04 2.06 2.04 2.02 1.98 1.94 1.84 1.83 1.78 1.70 1.63 1.56 1.50 1.51
0.05 0.05 0.04 0.04 0.04 0.04 0.04 0.06 0.12 0.23 0.41 0.63 0.53 0.64 1.03 1.31 1.46 1.16 1.05 1.02 1.12 1.08 1.04 1.16 1.22 1.20 1.24 1.39 1.52 1.65 1.76 1.76 1.76 1.75 1.74 1.69 1.64 1.64 1.58 1.48 1.45 1.39 1.35 1.27
0.12 0.12 0.10 0.06 0.05 0.06 0.06 0.12 0.45 0.80 1.09 1.11 0.71 0.74 1.07 1.05 1.02 0.97 0.96 1.04 1.05 0.96 0.88 0.87 0.91 0.99 1.04 1.13 1.17 1.22 1.35 1.42 1.36 1.33 1.35 1.33 1.34 1.35 1.28 1.21 1.15 1.08 0.99 0.95
0.17 0.24 0.15 0.09 0.09 0.09 0.10 0.15 0.50 0.76 0.81 0.91 0.79 1.05 1.37 1.06 0.95 0.87 0.91 1.00 0.97 0.83 0.73 0.69 0.69 0.74 0.78 0.81 0.82 0.85 0.98 1.10 1.14 1.12 1.08 1.00 0.98 0.99 0.94 0.99 0.93 0.87 0.78 0.72
0.10 0.11 0.08 0.08 0.09 0.11 0.15 0.17 0.23 0.43 0.47 0.67 0.87 1.14 1.27 0.95 0.89 0.94 1.04 1.05 0.98 0.76 0.59 0.54 0.55 0.57 0.58 0.57 0.62 0.67 0.79 0.90 0.97 0.98 0.91 0.84 0.82 0.81 0.78 0.81 0.85 0.82 0.82 0.71
0.06 0.05 0.06 0.07 0.09 0.12 0.15 0.15 0.19 0.36 0.51 0.69 0.79 1.13 1.36 1.21 1.15 1.10 1.14 0.98 0.69 0.52 0.44 0.40 0.39 0.38 0.40 0.43 0.52 0.60 0.68 0.71 0.75 0.80 0.79 0.65 0.69 0.75 0.74 0.72 0.71 0.71 0.71 0.69
0.05 0.04 0.06 0.09 0.12 0.14 0.19 0.21 0.28 0.39 0.41 0.60 0.88 1.04 0.96 0.94 0.98 1.07 1.02 0.80 0.54 0.40 0.32 0.32 0.32 0.33 0.35 0.36 0.46 0.56 0.65 0.72 0.74 0.77 0.80 0.69 0.64 0.63 0.62 0.64 0.63 0.63 0.61 0.63
0.07 0.06 0.10 0.16 0.18 0.17 0.17 0.19 0.28 0.42 0.40 0.43 0.62 0.73 0.51 0.52 0.58 0.62 0.64 0.54 0.44 0.40 0.30 0.30 0.34 0.36 0.36 0.40 0.47 0.54 0.61 0.68 0.72 0.79 0.86 0.82 0.73 0.67 0.62 0.59 0.58 0.55 0.53 0.56
0.10 0.11 0.16 0.37 0.48 0.30 0.18 0.17 0.19 0.24 0.27 0.28 0.47 0.58 0.38 0.40 0.47 0.57 0.67 0.70 0.65 0.55 0.37 0.32 0.35 0.37 0.37 0.42 0.50 0.59 0.67 0.69 0.72 0.82 0.96 0.96 0.80 0.72 0.69 0.62 0.55 0.52 0.49 0.49
0.11 0.14 0.18 0.40 0.51 0.39 0.30 0.23 0.19 0.22 0.30 0.28 0.29 0.41 0.40 0.42 0.48 0.59 0.68 0.70 0.60 0.49 0.39 0.34 0.37 0.40 0.41 0.43 0.43 0.45 0.50 0.52 0.59 0.64 0.76 0.87 0.82 0.69 0.56 0.48 0.49 0.51 0.50 0.52
0.09 0.11 0.12 0.15 0.21 0.29 0.31 0.26 0.20 0.17 0.21 0.33 0.31 0.33 0.39 0.46 0.42 0.50 0.54 0.47 0.44 0.38 0.39 0.39 0.42 0.44 0.46 0.43 0.38 0.34 0.31 0.30 0.36 0.43 0.50 0.60 0.55 0.48 0.45 0.43 0.37 0.36 0.40 0.43
0.16 0.16 0.15 0.13 0.16 0.21 0.24 0.25 0.17 0.13 0.12 0.15 0.24 0.39 0.39 0.39 0.42 0.41 0.41 0.39 0.38 0.40 0.42 0.45 0.49 0.51 0.44 0.39 0.32 0.27 0.23 0.25 0.32 0.39 0.44 0.52 0.51 0.42 0.35 0.33 0.31 0.30 0.34 0.39
0.32 0.27 0.24 0.19 0.17 0.24 0.28 0.24 0.18 0.12 0.11 0.11 0.27 0.49 0.39 0.37 0.40 0.39 0.43 0.43 0.36 0.35 0.32 0.29 0.31 0.36 0.30 0.26 0.23 0.24 0.22 0.22 0.30 0.38 0.47 0.54 0.57 0.55 0.43 0.31 0.31 0.33 0.39 0.45
0.39 0.41 0.35 0.28 0.32 0.47 0.32 0.20 0.18 0.19 0.17 0.17 0.22 0.30 0.31 0.35 0.34 0.28 0.27 0.29 0.29 0.31 0.30 0.31 0.32 0.29 0.28 0.26 0.26 0.27 0.26 0.25 0.31 0.38 0.44 0.49 0.53 0.54 0.52 0.48 0.45 0.48 0.57 0.62
0.29 0.42 0.40 0.38 0.44 0.39 0.34 0.29 0.28 0.32 0.32 0.29 0.37 0.31 0.28 0.29 0.26 0.27 0.21 0.22 0.22 0.26 0.29 0.33 0.36 0.39 0.41 0.36 0.37 0.39 0.39 0.40 0.43 0.49 0.56 0.55 0.58 0.61 0.59 0.58 0.61 0.66 0.71 0.70
0.36 0.45 0.52 0.48 0.58 0.57 0.51 0.44 0.39 0.40 0.61 0.46 0.46 0.45 0.41 0.40 0.46 0.42 0.28 0.21 0.22 0.24 0.27 0.30 0.26 0.28 0.38 0.41 0.47 0.52 0.57 0.58 0.63 0.70 0.77 0.77 0.81 0.85 0.81 0.84 0.89 0.89 0.90 0.83
0.74 0.73 0.65 0.64 0.69 0.65 0.53 0.49 0.44 0.73 0.86 0.51 0.46 0.48 0.50 0.50 0.54 0.41 0.31 0.26 0.27 0.23 0.25 0.28 0.33 0.31 0.37 0.43 0.52 0.63 0.71 0.72 0.77 0.80 0.90 1.00 1.08 1.18 1.25 1.31 1.23 1.18 1.14 1.09
0.81 0.91 0.91 0.90 0.96 0.85 0.55 0.53 0.72 0.86 0.67 0.68 0.57 0.51 0.49 0.46 0.46 0.43 0.37 0.34 0.25 0.28 0.31 0.34 0.43 0.40 0.42 0.46 0.55 0.65 0.73 0.83 0.96 1.03 1.14 1.23 1.35 1.38 1.42 1.71 1.74 1.75 1.65 1.43
0.82 0.90 0.92 0.92 0.95 0.73 0.60 0.72 0.77 0.74 0.77 0.76 0.64 0.50 0.48 0.45 0.43 0.43 0.38 0.32 0.25 0.26 0.32 0.34 0.44 0.51 0.53 0.59 0.76 0.91 0.90 0.99 1.14 1.25 1.34 1.42 1.50 1.58 1.67 1.81 1.85 1.86 1.82 1.62
0.81 0.69 0.81 0.92 0.97 0.82 0.66 0.67 0.75 0.73 0.68 0.70 0.64 0.61 0.62 0.55 0.46 0.52 0.47 0.35 0.30 0.29 0.33 0.37 0.46 0.58 0.73 0.81 0.94 1.09 1.06 1.12 1.26 1.33 1.36 1.41 1.51 1.62 1.73 1.85 1.82 1.77 1.71 1.65
0.72 0.77 0.93 1.07 1.02 0.92 0.80 0.77 0.90 0.86 0.75 0.76 0.72 0.69 0.70 0.60 0.49 0.46 0.43 0.41 0.40 0.42 0.47 0.47 0.54 0.67 0.86 1.00 1.09 1.15 1.17 1.27 1.38 1.39 1.43 1.52 1.57 1.62 1.72 1.74 1.77 1.69 1.59 1.51
0.68 0.80 0.97 1.11 1.03 1.10 1.05 0.87 0.91 0.95 0.78 0.78 0.79 0.75 0.63 0.56 0.54 0.50 0.47 0.43 0.42 0.47 0.50 0.54 0.61 0.71 0.85 1.02 1.18 1.26 1.35 1.45 1.53 1.55 1.47 1.54 1.63 1.69 1.73 1.71 1.57 1.41 1.29 1.17

GEFSCGP_prec_meanprecacc_162.txt.gz
Total_Precipitation_Accumulation
0.00 0.01 0.02 0.02 0.02 0.03 0.05 0.07 0.11 0.15 0.14 0.17 0.32 0.50 0.52 0.66 0.90 1.13 1.42 1.71 1.97 2.27 2.70 3.13 3.20 3.38 3.65 4.12 4.42 4.50 4.63 4.57 4.33 3.95 3.54 3.35 3.20 3.10 2.96 2.72 2.45 2.33 2.29 2.35
0.01 0.03 0.01 0.01 0.02 0.03 0.06 0.09 0.13 0.15 0.13 0.15 0.29 0.48 0.58 0.89 1.15 1.17 1.24 1.40 1.62 2.06 2.48 2.78 2.86 2.87 3.21 3.76 4.17 4.29 4.04 3.91 3.83 3.59 3.41 3.38 3.50 3.20 2.89 2.66 2.37 2.19 2.18 2.23
0.03 0.03 0.02 0.02 0.02 0.03 0.05 0.06 0.11 0.16 0.15 0.19 0.30 0.59 0.77 1.01 1.12 1.16 1.21 1.30 1.45 1.79 2.15 2.42 2.44 2.51 2.73 2.82 3.06 3.22 3.32 3.18 3.05 2.98 2.97 3.05 3.18 2.90 2.59 2.40 2.25 2.04 1.92 1.89
0.03 0.03 0.03 0.04 0.04 0.04 0.06 0.07 0.06 0.08 0.15 0.26 0.38 0.89 1.10 1.02 1.08 1.21 1.22 1.22 1.44 1.77 1.75 1.84 1.97 2.12 2.33 2.39 2.53 2.58 2.61 2.68 2.63 2.62 2.56 2.45 2.34 2.18 2.04 2.03 1.96 1.91 1.81 1.72
0.05 0.04 0.03 0.05 0.05 0.04 0.05 0.05 0.06 0.09 0.18 0.28 0.39 0.69 1.05 1.29 1.36 1.18 1.11 1.06 1.26 1.39 1.29 1.33 1.47 1.53 1.68 1.78 1.97 2.11 2.19 2.24 2.28 2.27 2.16 2.11 1.97 1.93 1.89 1.82 1.75 1.66 1.61 1.61
0.05 0.05 0.04 0.04 0.04 0.04 0.04 0.06 0.12 0.23 0.41 0.64 0.53 0.65 1.03 1.31 1.46 1.16 1.06 1.03 1.13 1.09 1.06 1.20 1.27 1.27 1.34 1.53 1.69 1.83 1.92 1.92 1.98 1.99 1.95 1.87 1.79 1.75 1.66 1.57 1.53 1.48 1.46 1.39
0.12 0.12 0.10 0.06 0.05 0.06 0.06 0.13 0.45 0.80 1.09 1.11 0.71 0.74 1.08 1.05 1.02 0.97 0.96 1.04 1.06 0.97 0.89 0.89 0.94 1.05 1.17 1.30 1.37 1.46 1.55 1.59 1.55 1.57 1.58 1.52 1.51 1.47 1.35 1.27 1.22 1.15 1.09 1.04
0.17 0.24 0.15 0.09 0.09 0.09 0.10 0.15 0.50 0.76 0.81 0.91 0.79 1.05 1.37 1.07 0.95 0.88 0.92 1.01 0.99 0.84 0.74 0.71 0.73 0.79 0.88 0.95 1.03 1.10 1.20 1.26 1.30 1.31 1.28 1.19 1.14 1.12 1.03 1.06 1.01 0.96 0.85 0.78
0.10 0.11 0.08 0.08 0.09 0.11 0.15 0.17 0.23 0.43 0.47 0.67 0.87 1.14 1.28 0.96 0.90 0.96 1.07 1.08 1.01 0.78 0.62 0.57 0.60 0.64 0.65 0.65 0.70 0.78 0.94 1.01 1.06 1.10 1.07 0.98 0.94 0.93 0.88 0.91 0.96 0.93 0.91 0.80
0.06 0.05 0.06 0.07 0.09 0.12 0.15 0.15 0.19 0.36 0.51 0.70 0.79 1.13 1.37 1.23 1.17 1.12 1.18 1.02 0.74 0.57 0.47 0.43 0.44 0.45 0.46 0.49 0.57 0.66 0.74 0.78 0.83 0.91 0.92 0.77 0.81 0.87 0.85 0.83 0.83 0.84 0.84 0.81
0.05 0.04 0.06 0.09 0.12 0.14 0.19 0.21 0.28 0.39 0.41 0.61 0.88 1.04 0.96 0.95 1.00 1.09 1.06 0.85 0.59 0.46 0.36 0.35 0.38 0.40 0.42 0.44 0.52 0.62 0.72 0.80 0.81 0.86 0.90 0.78 0.75 0.77 0.77 0.77 0.74 0.75 0.74 0.76
0.07 0.06 0.10 0.16 0.18 0.17 0.17 0.19 0.28 0.42 0.40 0.43 0.62 0.74 0.51 0.53 0.60 0.64 0.65 0.56 0.47 0.44 0.34 0.35 0.39 0.41 0.41 0.46 0.52 0.60 0.69 0.76 0.80 0.87 0.95 0.93 0.86 0.82 0.78 0.74 0.69 0.66 0.63 0.65
0.10 0.11 0.16 0.37 0.48 0.30 0.18 0.17 0.19 0.24 0.27 0.28 0.47 0.58 0.38 0.41 0.48 0.58 0.68 0.71 0.66 0.57 0.39 0.37 0.39 0.41 0.42 0.47 0.55 0.65 0.72 0.74 0.79 0.90 1.02 1.04 0.90 0.83 0.79 0.73 0.67 0.62 0.56 0.55
0.11 0.14 0.18 0.40 0.51 0.40 0.30 0.23 0.19 0.22 0.30 0.28 0.29 0.41 0.40 0.43 0.49 0.59 0.68 0.72 0.61 0.51 0.42 0.38 0.41 0.45 0.48 0.50 0.49 0.51 0.55 0.58 0.66 0.71 0.82 0.94 0.91 0.78 0.63 0.57 0.60 0.61 0.58 0.59
0.09 0.12 0.12 0.15 0.22 0.29 0.31 0.26 0.20 0.17 0.21 0.33 0.31 0.33 0.40 0.46 0.43 0.50 0.56 0.49 0.46 0.40 0.42 0.43 0.45 0.48 0.51 0.49 0.45 0.42 0.39 0.40 0.47 0.55 0.62 0.72 0.66 0.60 0.56 0.51 0.46 0.45 0.49 0.51
0.16 0.16 0.15 0.14 0.17 0.21 0.24 0.25 0.17 0.13 0.12 0.15 0.25 0.39 0.40 0.40 0.43 0.42 0.42 0.41 0.41 0.43 0.48 0.51 0.54 0.56 0.50 0.46 0.40 0.37 0.35 0.39 0.46 0.55 0.56 0.61 0.61 0.52 0.44 0.40 0.38 0.36 0.39 0.46
0.32 0.28 0.25 0.20 0.18 0.24 0.29 0.24 0.18 0.13 0.11 0.12 0.28 0.49 0.40 0.38 0.41 0.41 0.44 0.44 0.37 0.39 0.41 0.43 0.42 0.45 0.37 0.36 0.37 0.35 0.35 0.36 0.40 0.47 0.55 0.62 0.65 0.62 0.48 0.36 0.37 0.38 0.44 0.50
0.40 0.43 0.36 0.29 0.34 0.49 0.34 0.21 0.18 0.20 0.18 0.18 0.23 0.31 0.32 0.36 0.35 0.30 0.28 0.30 0.30 0.34 0.36 0.40 0.42 0.39 0.38 0.36 0.37 0.35 0.33 0.32 0.38 0.45 0.51 0.55 0.60 0.59 0.56 0.51 0.48 0.51 0.60 0.65
0.31 0.44 0.43 0.39 0.46 0.40 0.36 0.30 0.29 0.33 0.33 0.30 0.37 0.32 0.29 0.30 0.27 0.28 0.22 0.23 0.23 0.28 0.31 0.36 0.41 0.45 0.49 0.45 0.47 0.48 0.46 0.46 0.49 0.54 0.60 0.60 0.63 0.65 0.64 0.62 0.65 0.70 0.75 0.73
0.38 0.47 0.55 0.51 0.60 0.59 0.54 0.45 0.40 0.42 0.62 0.47 0.47 0.46 0.41 0.41 0.48 0.43 0.29 0.22 0.24 0.25 0.29 0.33 0.30 0.32 0.42 0.47 0.56 0.63 0.66 0.65 0.70 0.76 0.82 0.81 0.86 0.90 0.86 0.91 0.96 0.96 0.96 0.90
0.77 0.76 0.67 0.66 0.71 0.67 0.56 0.51 0.46 0.75 0.87 0.53 0.47 0.51 0.52 0.52 0.56 0.44 0.33 0.27 0.29 0.25 0.26 0.30 0.35 0.33 0.39 0.48 0.59 0.72 0.81 0.80 0.85 0.88 0.97 1.06 1.14 1.26 1.34 1.41 1.33 1.28 1.24 1.21
0.85 0.95 0.94 0.93 0.98 0.87 0.57 0.55 0.74 0.88 0.69 0.69 0.59 0.54 0.52 0.48 0.50 0.47 0.41 0.39 0.29 0.31 0.33 0.36 0.46 0.42 0.44 0.50 0.60 0.71 0.79 0.90 1.03 1.10 1.22 1.30 1.41 1.45 1.52 1.82 1.85 1.87 1.79 1.57
0.86 0.94 0.96 0.95 0.97 0.74 0.62 0.75 0.79 0.76 0.78 0.78 0.68 0.54 0.51 0.47 0.45 0.46 0.42 0.35 0.27 0.27 0.33 0.37 0.50 0.55 0.55 0.62 0.80 0.96 0.95 1.03 1.18 1.29 1.41 1.50 1.55 1.64 1.74 1.88 1.93 1.97 1.95 1.77
0.87 0.75 0.86 0.95 1.00 0.84 0.68 0.70 0.79 0.76 0.70 0.73 0.68 0.64 0.65 0.57 0.48 0.54 0.50 0.38 0.32 0.31 0.35 0.39 0.50 0.62 0.77 0.86 0.99 1.14 1.11 1.15 1.28 1.36 1.41 1.47 1.56 1.67 1.78 1.91 1.90 1.86 1.80 1.75
0.78 0.83 0.99 1.12 1.07 0.96 0.84 0.80 0.93 0.90 0.78 0.79 0.75 0.72 0.72 0.61 0.51 0.47 0.45 0.45 0.44 0.45 0.49 0.50 0.58 0.71 0.91 1.06 1.16 1.21 1.22 1.31 1.40 1.43 1.49 1.58 1.62 1.67 1.77 1.81 1.86 1.77 1.67 1.60
0.73 0.86 1.02 1.15 1.08 1.15 1.09 0.90 0.95 1.01 0.85 0.83 0.82 0.77 0.64 0.57 0.55 0.52 0.50 0.50 0.51 0.54 0.55 0.59 0.67 0.78 0.92 1.08 1.24 1.34 1.42 1.51 1.58 1.60 1.54 1.60 1.69 1.75 1.80 1.78 1.66 1.51 1.41 1.29

GEFSCGP_prec_meanprecacc_168.txt.gz
Total_Precipitation_Accumulation
0.00 0.01 0.02 0.02 0.02 0.03 0.05 0.07 0.11 0.15 0.14 0.17 0.32 0.50 0.52 0.66 0.90 1.13 1.42 1.71 1.98 2.28 2.71 3.15 3.22 3.43 3.71 4.20 4.46 4.53 4.65 4.59 4.35 3.97 3.56 3.37 3.24 3.15 2.99 2.75 2.50 2.40 2.35 2.40
0.01 0.03 0.01 0.01 0.02 0.03 0.06 0.09 0.13 0.15 0.13 0.15 0.30 0.48 0.58 0.89 1.15 1.17 1.24 1.40 1.62 2.06 2.48 2.79 2.86 2.89 3.24 3.81 4.22 4.32 4.06 3.94 3.85 3.61 3.44 3.41 3.55 3.25 2.95 2.73 2.44 2.26 2.25 2.30
0.03 0.03 0.02 0.02 0.02 0.03 0.05 0.06 0.11 0.16 0.15 0.19 0.30 0.59 0.77 1.01 1.12 1.16 1.21 1.30 1.45 1.79 2.16 2.43 2.45 2.54 2.76 2.85 3.10 3.25 3.35 3.21 3.08 3.01 3.01 3.09 3.24 2.97 2.66 2.48 2.34 2.12 1.99 1.96
0.03 0.03 0.03 0.04 0.04 0.04 0.06 0.07 0.06 0.08 0.15 0.26 0.38 0.89 1.10 1.02 1.08 1.21 1.22 1.22 1.44 1.77 1.75 1.84 1.98 2.14 2.35 2.42 2.56 2.62 2.64 2.72 2.67 2.67 2.61 2.50 2.42 2.26 2.12 2.11 2.06 2.02 1.92 1.81
0.05 0.04 0.03 0.05 0.05 0.04 0.05 0.05 0.06 0.09 0.18 0.28 0.39 0.69 1.05 1.29 1.36 1.18 1.11 1.06 1.26 1.39 1.29 1.33 1.50 1.58 1.72 1.81 2.01 2.15 2.23 2.29 2.35 2.35 2.25 2.22 2.06 2.02 2.00 1.94 1.88 1.80 1.72 1.69
0.05 0.05 0.04 0.04 0.04 0.04 0.04 0.06 0.12 0.23 0.41 0.64 0.53 0.65 1.03 1.31 1.46 1.16 1.06 1.03 1.13 1.09 1.06 1.20 1.29 1.32 1.41 1.58 1.73 1.87 1.96 1.96 2.03 2.08 2.05 1.98 1.91 1.88 1.83 1.77 1.69 1.63 1.61 1.50
0.12 0.12 0.10 0.06 0.05 0.06 0.06 0.13 0.45 0.81 1.09 1.11 0.71 0.74 1.08 1.05 1.02 0.97 0.97 1.04 1.06 0.97 0.89 0.89 0.95 1.06 1.20 1.34 1.42 1.51 1.59 1.62 1.58 1.63 1.65 1.62 1.64 1.61 1.50 1.45 1.41 1.36 1.26 1.17
0.17 0.24 0.15 0.09 0.09 0.09 0.10 0.15 0.50 0.76 0.81 0.91 0.79 1.05 1.37 1.07 0.95 0.88 0.92 1.01 0.99 0.84 0.75 0.72 0.74 0.80 0.89 0.97 1.07 1.15 1.26 1.30 1.35 1.39 1.37 1.32 1.30 1.26 1.17 1.22 1.17 1.11 0.98 0.90
0.10 0.11 0.08 0.08 0.09 0.11 0.15 0.17 0.23 0.43 0.47 0.67 0.87 1.14 1.28 0.96 0.90 0.97 1.07 1.08 1.01 0.79 0.62 0.58 0.61 0.65 0.66 0.66 0.73 0.83 1.01 1.08 1.13 1.17 1.14 1.08 1.08 1.06 1.02 1.07 1.13 1.07 1.03 0.92
0.06 0.05 0.06 0.07 0.09 0.12 0.15 0.15 0.19 0.36 0.51 0.70 0.79 1.13 1.38 1.23 1.18 1.13 1.19 1.03 0.75 0.57 0.47 0.44 0.45 0.46 0.48 0.50 0.59 0.68 0.79 0.84 0.90 0.97 0.98 0.84 0.91 1.00 0.98 0.98 0.98 0.98 0.95 0.92
0.05 0.04 0.06 0.09 0.12 0.14 0.19 0.21 0.28 0.39 0.41 0.61 0.88 1.05 0.96 0.95 1.00 1.09 1.07 0.85 0.59 0.47 0.37 0.36 0.39 0.42 0.43 0.44 0.53 0.63 0.76 0.84 0.87 0.92 0.98 0.89 0.84 0.89 0.89 0.87 0.88 0.88 0.84 0.84
0.07 0.06 0.10 0.16 0.18 0.17 0.17 0.19 0.28 0.42 0.40 0.43 0.62 0.74 0.51 0.53 0.60 0.64 0.66 0.56 0.47 0.44 0.35 0.37 0.40 0.42 0.42 0.47 0.54 0.61 0.71 0.80 0.85 0.95 1.05 1.05 0.96 0.91 0.88 0.83 0.78 0.74 0.71 0.73
0.11 0.11 0.16 0.37 0.48 0.30 0.19 0.17 0.19 0.24 0.27 0.28 0.47 0.58 0.39 0.41 0.48 0.58 0.68 0.71 0.66 0.57 0.40 0.38 0.41 0.43 0.44 0.49 0.58 0.67 0.74 0.78 0.83 0.96 1.09 1.11 0.98 0.89 0.87 0.81 0.75 0.69 0.63 0.61
0.11 0.14 0.18 0.40 0.51 0.40 0.30 0.23 0.19 0.22 0.31 0.28 0.29 0.41 0.40 0.43 0.49 0.59 0.69 0.72 0.61 0.51 0.42 0.39 0.42 0.46 0.49 0.52 0.51 0.53 0.57 0.61 0.70 0.76 0.87 0.99 0.97 0.84 0.70 0.64 0.66 0.68 0.65 0.64
0.09 0.12 0.12 0.15 0.22 0.29 0.31 0.26 0.20 0.17 0.21 0.33 0.31 0.33 0.40 0.46 0.43 0.51 0.56 0.50 0.47 0.40 0.42 0.43 0.46 0.49 0.51 0.50 0.46 0.43 0.41 0.43 0.50 0.58 0.66 0.76 0.71 0.65 0.62 0.57 0.52 0.50 0.56 0.57
0.16 0.17 0.15 0.14 0.17 0.21 0.24 0.25 0.17 0.13 0.12 0.15 0.25 0.39 0.40 0.40 0.43 0.42 0.43 0.42 0.41 0.43 0.48 0.52 0.55 0.57 0.50 0.47 0.41 0.38 0.37 0.40 0.49 0.57 0.60 0.65 0.65 0.57 0.49 0.46 0.43 0.41 0.46 0.54
0.33 0.29 0.26 0.21 0.19 0.25 0.29 0.24 0.18 0.13 0.11 0.12 0.28 0.49 0.40 0.38 0.41 0.41 0.45 0.45 0.38 0.39 0.41 0.43 0.43 0.46 0.39 0.38 0.38 0.36 0.38 0.40 0.44 0.51 0.58 0.65 0.69 0.66 0.52 0.42 0.45 0.46 0.53 0.59
0.41 0.44 0.37 0.30 0.36 0.51 0.34 0.21 0.19 0.20 0.18 0.18 0.23 0.31 0.32 0.36 0.35 0.30 0.28 0.31 0.30 0.34 0.37 0.41 0.42 0.39 0.39 0.38 0.38 0.37 0.34 0.35 0.41 0.48 0.54 0.58 0.64 0.63 0.60 0.56 0.57 0.62 0.69 0.74
0.31 0.45 0.44 0.41 0.48 0.42 0.37 0.30 0.30 0.34 0.33 0.30 0.38 0.32 0.29 0.30 0.28 0.29 0.22 0.23 0.23 0.28 0.31 0.36 0.41 0.46 0.50 0.47 0.49 0.50 0.47 0.49 0.52 0.56 0.62 0.62 0.65 0.69 0.68 0.66 0.69 0.76 0.82 0.82
0.38 0.48 0.57 0.52 0.62 0.61 0.55 0.46 0.41 0.42 0.64 0.47 0.47 0.46 0.42 0.42 0.48 0.44 0.29 0.22 0.24 0.25 0.30 0.34 0.31 0.33 0.44 0.49 0.57 0.64 0.69 0.68 0.73 0.79 0.84 0.85 0.90 0.94 0.90 0.96 1.02 1.02 1.03 0.96
0.79 0.77 0.69 0.68 0.73 0.69 0.56 0.51 0.47 0.77 0.88 0.53 0.48 0.51 0.53 0.53 0.57 0.44 0.33 0.28 0.30 0.26 0.27 0.30 0.36 0.34 0.41 0.50 0.61 0.76 0.85 0.84 0.88 0.91 0.99 1.10 1.18 1.30 1.38 1.46 1.41 1.36 1.32 1.28
0.87 0.97 0.97 0.95 1.01 0.89 0.57 0.56 0.76 0.89 0.69 0.69 0.60 0.55 0.52 0.49 0.51 0.48 0.42 0.39 0.30 0.31 0.33 0.36 0.46 0.43 0.45 0.53 0.63 0.74 0.86 0.97 1.09 1.15 1.26 1.34 1.45 1.49 1.56 1.87 1.91 1.93 1.87 1.65
0.89 0.97 0.98 0.97 1.00 0.76 0.63 0.76 0.81 0.76 0.78 0.79 0.69 0.54 0.53 0.48 0.46 0.47 0.42 0.36 0.28 0.28 0.33 0.37 0.51 0.55 0.56 0.64 0.82 0.99 0.99 1.08 1.23 1.34 1.46 1.54 1.59 1.68 1.78 1.92 1.98 2.02 2.00 1.81
0.89 0.77 0.88 0.97 1.02 0.85 0.70 0.71 0.80 0.77 0.71 0.74 0.70 0.65 0.67 0.58 0.49 0.54 0.50 0.38 0.32 0.31 0.35 0.39 0.51 0.63 0.79 0.88 1.01 1.17 1.15 1.20 1.33 1.40 1.44 1.51 1.61 1.71 1.81 1.93 1.92 1.88 1.83 1.78
0.81 0.85 1.02 1.15 1.10 0.99 0.86 0.82 0.95 0.93 0.81 0.81 0.77 0.74 0.74 0.62 0.51 0.47 0.46 0.45 0.44 0.46 0.50 0.51 0.59 0.74 0.95 1.10 1.20 1.25 1.26 1.35 1.45 1.47 1.53 1.62 1.66 1.71 1.81 1.83 1.88 1.79 1.70 1.63
0.77 0.90 1.07 1.20 1.12 1.20 1.12 0.93 0.99 1.05 0.90 0.87 0.84 0.79 0.65 0.58 0.56 0.52 0.51 0.50 0.51 0.55 0.56 0.60 0.69 0.80 0.96 1.11 1.27 1.38 1.47 1.54 1.61 1.63 1.57 1.64 1.73 1.79 1.85 1.82 1.69 1.54 1.44 1.33

GEFSCGP_prec_meanprecacc_174.txt.gz
Total_Precipitation_Accumulation
0.00 0.01 0.02 0.02 0.02 0.03 0.05 0.07 0.11 0.15 0.14 0.17 0.32 0.50 0.52 0.66 0.91 1.13 1.43 1.72 2.01 2.29 2.72 3.15 3.23 3.45 3.74 4.24 4.53 4.61 4.73 4.65 4.42 4.03 3.61 3.41 3.28 3.19 3.03 2.79 2.55 2.45 2.39 2.45
0.01 0.03 0.01 0.01 0.02 0.03 0.06 0.09 0.13 0.15 0.13 0.15 0.30 0.48 0.58 0.90 1.15 1.17 1.25 1.40 1.62 2.07 2.49 2.80 2.88 2.90 3.27 3.85 4.25 4.37 4.13 4.00 3.91 3.66 3.49 3.45 3.60 3.31 2.99 2.78 2.52 2.32 2.30 2.35
0.03 0.03 0.02 0.02 0.02 0.03 0.05 0.06 0.11 0.16 0.15 0.19 0.30 0.59 0.77 1.01 1.12 1.16 1.21 1.31 1.45 1.80 2.16 2.45 2.47 2.56 2.78 2.88 3.12 3.28 3.41 3.28 3.15 3.07 3.07 3.14 3.31 3.04 2.73 2.55 2.40 2.18 2.04 2.00
0.03 0.03 0.03 0.04 0.04 0.04 0.06 0.07 0.06 0.08 0.15 0.26 0.38 0.90 1.12 1.04 1.09 1.22 1.22 1.22 1.44 1.77 1.75 1.85 1.99 2.16 2.38 2.44 2.59 2.66 2.70 2.79 2.74 2.73 2.66 2.55 2.46 2.33 2.19 2.18 2.13 2.09 1.99 1.88
0.05 0.04 0.03 0.05 0.05 0.04 0.05 0.05 0.06 0.09 0.18 0.28 0.39 0.70 1.08 1.38 1.43 1.21 1.13 1.07 1.26 1.39 1.29 1.33 1.50 1.61 1.75 1.83 2.03 2.18 2.28 2.36 2.42 2.41 2.31 2.29 2.13 2.09 2.08 2.02 1.97 1.89 1.81 1.78
0.05 0.05 0.04 0.04 0.04 0.04 0.04 0.06 0.12 0.23 0.41 0.64 0.53 0.65 1.04 1.37 1.59 1.27 1.10 1.03 1.13 1.09 1.06 1.20 1.29 1.33 1.44 1.60 1.75 1.89 2.00 2.03 2.09 2.13 2.10 2.05 1.99 1.98 1.92 1.84 1.78 1.73 1.71 1.60
0.12 0.12 0.10 0.06 0.05 0.06 0.06 0.13 0.45 0.81 1.09 1.11 0.71 0.74 1.09 1.09 1.07 1.05 1.00 1.05 1.06 0.97 0.90 0.90 0.96 1.07 1.21 1.36 1.43 1.53 1.64 1.68 1.64 1.67 1.70 1.68 1.73 1.75 1.62 1.54 1.52 1.47 1.34 1.24
0.17 0.24 0.15 0.09 0.09 0.09 0.10 0.15 0.50 0.76 0.81 0.91 0.79 1.06 1.38 1.08 0.97 0.90 0.94 1.01 0.99 0.84 0.75 0.73 0.75 0.81 0.90 1.00 1.12 1.22 1.33 1.37 1.41 1.44 1.43 1.39 1.39 1.36 1.25 1.32 1.29 1.21 1.04 0.96
0.10 0.11 0.08 0.08 0.09 0.11 0.15 0.17 0.23 0.43 0.48 0.68 0.87 1.15 1.29 0.97 0.91 0.97 1.07 1.08 1.01 0.79 0.62 0.58 0.61 0.66 0.67 0.68 0.77 0.89 1.07 1.15 1.20 1.24 1.22 1.15 1.15 1.16 1.12 1.17 1.24 1.16 1.10 0.99
0.06 0.05 0.06 0.07 0.09 0.12 0.15 0.15 0.19 0.36 0.51 0.71 0.81 1.16 1.39 1.24 1.18 1.13 1.19 1.03 0.75 0.58 0.48 0.44 0.45 0.47 0.49 0.51 0.61 0.72 0.85 0.91 0.97 1.05 1.04 0.90 0.99 1.09 1.08 1.09 1.09 1.09 1.06 1.02
0.05 0.04 0.06 0.09 0.12 0.14 0.19 0.21 0.28 0.39 0.42 0.62 0.92 1.11 1.02 1.00 1.02 1.09 1.07 0.86 0.60 0.47 0.38 0.37 0.39 0.43 0.44 0.46 0.56 0.67 0.81 0.90 0.93 0.98 1.03 0.95 0.92 0.99 1.01 0.99 0.96 0.99 0.97 0.96
0.07 0.06 0.10 0.16 0.18 0.17 0.17 0.19 0.28 0.42 0.40 0.44 0.64 0.80 0.55 0.57 0.63 0.65 0.66 0.57 0.47 0.45 0.38 0.38 0.41 0.44 0.45 0.50 0.57 0.65 0.76 0.86 0.91 1.01 1.12 1.14 1.06 1.02 1.01 0.95 0.88 0.86 0.83 0.83
0.11 0.11 0.17 0.37 0.48 0.30 0.19 0.17 0.19 0.24 0.27 0.28 0.48 0.63 0.42 0.47 0.55 0.62 0.69 0.72 0.67 0.58 0.42 0.38 0.42 0.44 0.47 0.54 0.64 0.70 0.78 0.83 0.88 1.01 1.16 1.21 1.10 1.02 1.02 0.98 0.87 0.79 0.74 0.73
0.11 0.14 0.18 0.40 0.51 0.40 0.30 0.23 0.19 0.22 0.31 0.28 0.30 0.44 0.44 0.49 0.55 0.61 0.69 0.72 0.62 0.52 0.42 0.39 0.43 0.47 0.52 0.56 0.56 0.58 0.60 0.64 0.74 0.80 0.91 1.06 1.06 0.95 0.86 0.81 0.78 0.78 0.76 0.75
0.09 0.12 0.12 0.15 0.22 0.29 0.31 0.26 0.21 0.17 0.21 0.33 0.31 0.34 0.42 0.49 0.47 0.55 0.58 0.50 0.47 0.41 0.42 0.43 0.47 0.50 0.53 0.53 0.49 0.47 0.44 0.46 0.52 0.63 0.71 0.81 0.78 0.76 0.75 0.70 0.63 0.62 0.68 0.68
0.16 0.17 0.16 0.15 0.17 0.21 0.24 0.25 0.18 0.13 0.12 0.15 0.25 0.42 0.44 0.43 0.45 0.46 0.44 0.42 0.41 0.43 0.49 0.52 0.55 0.58 0.51 0.49 0.43 0.40 0.41 0.44 0.51 0.60 0.64 0.72 0.72 0.66 0.61 0.58 0.54 0.52 0.59 0.68
0.34 0.29 0.27 0.23 0.20 0.26 0.30 0.25 0.18 0.13 0.11 0.12 0.29 0.53 0.48 0.45 0.46 0.45 0.47 0.45 0.38 0.40 0.42 0.44 0.44 0.47 0.40 0.39 0.40 0.40 0.44 0.46 0.49 0.56 0.62 0.70 0.75 0.73 0.62 0.53 0.57 0.58 0.65 0.72
0.42 0.46 0.38 0.33 0.38 0.53 0.36 0.22 0.19 0.20 0.18 0.19 0.24 0.33 0.38 0.43 0.43 0.36 0.33 0.32 0.32 0.37 0.41 0.43 0.44 0.41 0.41 0.40 0.41 0.40 0.38 0.40 0.46 0.52 0.58 0.62 0.69 0.71 0.69 0.65 0.68 0.73 0.81 0.86
0.32 0.47 0.47 0.44 0.52 0.46 0.39 0.32 0.30 0.34 0.34 0.31 0.40 0.37 0.39 0.40 0.36 0.35 0.25 0.25 0.25 0.30 0.36 0.39 0.43 0.47 0.53 0.50 0.53 0.54 0.51 0.53 0.59 0.61 0.66 0.65 0.69 0.76 0.80 0.79 0.79 0.86 0.92 0.94
0.39 0.50 0.60 0.56 0.69 0.69 0.59 0.47 0.41 0.44 0.68 0.52 0.52 0.53 0.55 0.53 0.56 0.49 0.31 0.25 0.27 0.28 0.32 0.35 0.32 0.34 0.45 0.51 0.61 0.69 0.74 0.75 0.81 0.85 0.90 0.91 0.96 1.02 0.98 1.06 1.14 1.13 1.13 1.08
0.82 0.80 0.72 0.72 0.83 0.83 0.65 0.54 0.48 0.82 0.95 0.57 0.53 0.58 0.62 0.63 0.63 0.47 0.34 0.29 0.31 0.28 0.29 0.32 0.37 0.35 0.42 0.52 0.65 0.81 0.92 0.92 0.98 1.01 1.09 1.18 1.27 1.39 1.47 1.56 1.51 1.45 1.42 1.39
0.92 1.01 1.01 1.02 1.13 1.04 0.65 0.61 0.82 0.98 0.74 0.75 0.66 0.61 0.60 0.54 0.54 0.50 0.43 0.40 0.31 0.32 0.34 0.37 0.47 0.44 0.47 0.56 0.67 0.79 0.92 1.05 1.18 1.24 1.34 1.43 1.54 1.57 1.64 1.95 2.00 2.04 1.97 1.74
0.98 1.04 1.06 1.07 1.12 0.86 0.69 0.82 0.86 0.81 0.82 0.85 0.77 0.63 0.59 0.51 0.48 0.48 0.44 0.36 0.28 0.28 0.34 0.38 0.51 0.56 0.57 0.66 0.86 1.04 1.04 1.15 1.32 1.43 1.54 1.62 1.67 1.76 1.87 2.00 2.06 2.12 2.11 1.90
0.99 0.83 0.95 1.06 1.11 0.91 0.76 0.74 0.83 0.80 0.74 0.77 0.74 0.74 0.72 0.60 0.50 0.55 0.51 0.39 0.33 0.31 0.35 0.40 0.51 0.64 0.81 0.91 1.06 1.24 1.23 1.30 1.44 1.50 1.53 1.60 1.69 1.78 1.89 2.02 2.00 1.96 1.91 1.87
0.88 0.93 1.10 1.22 1.16 1.03 0.89 0.85 0.97 0.96 0.85 0.87 0.85 0.83 0.79 0.65 0.53 0.49 0.47 0.46 0.45 0.46 0.50 0.51 0.59 0.75 0.97 1.14 1.24 1.31 1.33 1.46 1.58 1.60 1.65 1.72 1.75 1.78 1.88 1.91 1.96 1.87 1.78 1.71
0.82 0.96 1.14 1.26 1.17 1.25 1.16 0.96 1.02 1.09 0.95 0.94 0.93 0.86 0.70 0.61 0.58 0.54 0.52 0.51 0.52 0.55 0.56 0.61 0.69 0.81 0.97 1.14 1.31 1.43 1.53 1.62 1.71 1.74 1.68 1.76 1.84 1.88 1.92 1.89 1.75 1.61 1.50 1.39

GEFSCGP_prec_meanprecacc_180.txt.gz
Total_Precipitation_Accumulation
0.00 0.01 0.02 0.02 0.02 0.03 0.05 0.07 0.11 0.15 0.14 0.17 0.33 0.51 0.53 0.69 0.95 1.22 1.52 1.78 2.07 2.33 2.76 3.21 3.29 3.50 3.79 4.32 4.62 4.67 4.81 4.70 4.45 4.06 3.63 3.43 3.33 3.26 3.06 2.81 2.57 2.47 2.41 2.46
0.01 0.03 0.01 0.01 0.02 0.03 0.06 0.09 0.13 0.15 0.14 0.15 0.30 0.49 0.59 0.92 1.19 1.24 1.36 1.49 1.68 2.12 2.53 2.85 3.00 3.05 3.39 3.95 4.32 4.42 4.20 4.06 3.94 3.69 3.53 3.48 3.63 3.33 3.01 2.80 2.55 2.37 2.33 2.38
0.03 0.03 0.02 0.02 0.02 0.03 0.05 0.06 0.11 0.16 0.15 0.20 0.31 0.60 0.79 1.03 1.15 1.19 1.26 1.37 1.51 1.87 2.20 2.50 2.56 2.64 2.85 2.97 3.19 3.35 3.48 3.34 3.20 3.14 3.13 3.20 3.36 3.08 2.76 2.57 2.43 2.21 2.08 2.03
0.03 0.03 0.03 0.04 0.04 0.04 0.06 0.07 0.06 0.08 0.15 0.27 0.41 0.92 1.14 1.06 1.11 1.25 1.28 1.30 1.52 1.84 1.82 1.91 2.08 2.23 2.48 2.59 2.72 2.77 2.79 2.87 2.82 2.80 2.71 2.58 2.49 2.35 2.21 2.20 2.15 2.12 2.01 1.90
0.05 0.04 0.03 0.05 0.05 0.04 0.05 0.05 0.06 0.09 0.18 0.29 0.40 0.71 1.09 1.40 1.45 1.24 1.18 1.14 1.34 1.50 1.42 1.40 1.56 1.67 1.83 1.96 2.17 2.30 2.38 2.46 2.50 2.48 2.37 2.34 2.17 2.12 2.11 2.06 2.00 1.91 1.84 1.81
0.05 0.05 0.04 0.04 0.04 0.04 0.04 0.06 0.12 0.23 0.41 0.64 0.54 0.66 1.05 1.39 1.63 1.32 1.15 1.09 1.19 1.16 1.15 1.26 1.35 1.39 1.50 1.69 1.84 1.98 2.08 2.10 2.17 2.20 2.17 2.12 2.05 2.02 1.97 1.88 1.82 1.78 1.76 1.66
0.12 0.12 0.10 0.06 0.05 0.06 0.06 0.13 0.45 0.81 1.10 1.12 0.72 0.75 1.11 1.12 1.13 1.13 1.09 1.12 1.11 1.03 0.97 0.97 1.04 1.15 1.29 1.46 1.54 1.60 1.71 1.77 1.74 1.76 1.77 1.73 1.78 1.81 1.69 1.60 1.57 1.51 1.39 1.30
0.17 0.24 0.15 0.09 0.09 0.09 0.10 0.15 0.50 0.76 0.82 0.92 0.80 1.07 1.40 1.10 1.00 0.94 1.00 1.07 1.03 0.89 0.81 0.81 0.91 0.94 1.00 1.12 1.25 1.32 1.43 1.48 1.53 1.55 1.53 1.49 1.47 1.46 1.34 1.40 1.36 1.28 1.10 1.02
0.10 0.11 0.08 0.08 0.09 0.11 0.15 0.17 0.23 0.43 0.48 0.69 0.89 1.17 1.33 1.01 0.97 1.05 1.15 1.12 1.04 0.82 0.67 0.64 0.70 0.76 0.74 0.77 0.88 1.00 1.22 1.31 1.34 1.37 1.33 1.25 1.24 1.25 1.19 1.24 1.32 1.24 1.18 1.07
0.06 0.05 0.06 0.07 0.09 0.12 0.15 0.15 0.19 0.36 0.52 0.72 0.85 1.20 1.47 1.32 1.25 1.24 1.27 1.08 0.79 0.62 0.51 0.48 0.50 0.51 0.54 0.59 0.69 0.80 0.94 1.03 1.08 1.17 1.17 1.00 1.10 1.18 1.15 1.13 1.13 1.16 1.16 1.12
0.05 0.04 0.06 0.09 0.12 0.14 0.19 0.21 0.28 0.39 0.42 0.64 0.98 1.17 1.10 1.09 1.11 1.17 1.13 0.91 0.65 0.53 0.43 0.42 0.44 0.46 0.49 0.52 0.63 0.75 0.89 0.98 1.01 1.07 1.12 1.05 1.04 1.08 1.08 1.05 1.03 1.07 1.07 1.08
0.07 0.06 0.10 0.16 0.18 0.17 0.17 0.19 0.28 0.42 0.40 0.45 0.69 0.88 0.61 0.63 0.70 0.78 0.79 0.65 0.53 0.51 0.46 0.50 0.50 0.51 0.51 0.58 0.65 0.72 0.83 0.93 0.97 1.07 1.17 1.20 1.14 1.09 1.07 1.03 0.95 0.92 0.89 0.91
0.11 0.11 0.17 0.37 0.48 0.30 0.19 0.17 0.19 0.24 0.27 0.29 0.51 0.68 0.46 0.52 0.62 0.74 0.80 0.79 0.73 0.64 0.50 0.48 0.53 0.55 0.54 0.63 0.72 0.80 0.91 0.94 0.97 1.09 1.22 1.29 1.17 1.08 1.09 1.03 0.92 0.85 0.80 0.81
0.11 0.14 0.19 0.40 0.52 0.40 0.30 0.23 0.19 0.22 0.31 0.28 0.31 0.46 0.47 0.53 0.61 0.69 0.74 0.77 0.69 0.59 0.48 0.45 0.50 0.54 0.59 0.65 0.68 0.69 0.68 0.74 0.84 0.87 1.00 1.15 1.15 1.03 0.93 0.88 0.87 0.87 0.85 0.82
0.09 0.12 0.12 0.16 0.23 0.29 0.32 0.26 0.21 0.17 0.21 0.34 0.32 0.36 0.45 0.54 0.54 0.63 0.67 0.60 0.59 0.51 0.50 0.49 0.51 0.54 0.58 0.58 0.54 0.51 0.47 0.49 0.56 0.67 0.76 0.87 0.85 0.84 0.82 0.76 0.70 0.72 0.79 0.77
0.16 0.17 0.16 0.15 0.17 0.22 0.25 0.25 0.18 0.13 0.12 0.15 0.27 0.44 0.47 0.49 0.53 0.55 0.55 0.57 0.57 0.61 0.65 0.64 0.61 0.62 0.55 0.52 0.45 0.43 0.42 0.46 0.54 0.64 0.68 0.77 0.78 0.72 0.67 0.66 0.62 0.62 0.69 0.77
0.34 0.29 0.27 0.24 0.20 0.26 0.30 0.25 0.19 0.14 0.12 0.14 0.30 0.55 0.51 0.50 0.54 0.59 0.64 0.69 0.58 0.55 0.57 0.60 0.56 0.54 0.44 0.42 0.42 0.42 0.46 0.48 0.51 0.59 0.67 0.74 0.80 0.78 0.66 0.59 0.66 0.67 0.74 0.80
0.43 0.46 0.39 0.34 0.40 0.55 0.37 0.23 0.20 0.21 0.20 0.20 0.25 0.34 0.41 0.51 0.53 0.48 0.52 0.63 0.62 0.57 0.60 0.58 0.53 0.52 0.48 0.44 0.43 0.41 0.40 0.42 0.47 0.54 0.61 0.66 0.73 0.74 0.74 0.73 0.76 0.82 0.88 0.92
0.33 0.48 0.49 0.46 0.55 0.48 0.40 0.33 0.31 0.35 0.35 0.32 0.40 0.37 0.41 0.47 0.49 0.50 0.41 0.44 0.44 0.54 0.55 0.56 0.56 0.60 0.59 0.53 0.56 0.57 0.53 0.55 0.60 0.64 0.71 0.70 0.73 0.80 0.85 0.86 0.88 0.95 1.00 1.00
0.40 0.52 0.63 0.59 0.73 0.74 0.62 0.50 0.44 0.46 0.73 0.55 0.54 0.55 0.57 0.57 0.67 0.74 0.51 0.37 0.39 0.48 0.52 0.55 0.48 0.41 0.49 0.54 0.63 0.71 0.76 0.77 0.83 0.90 0.95 0.96 1.01 1.05 1.02 1.12 1.21 1.23 1.24 1.15
0.83 0.84 0.76 0.76 0.88 0.90 0.70 0.59 0.52 0.87 1.03 0.64 0.61 0.67 0.66 0.69 0.76 0.72 0.59 0.46 0.50 0.43 0.45 0.47 0.48 0.42 0.46 0.54 0.67 0.83 0.94 0.93 1.00 1.06 1.15 1.25 1.33 1.45 1.52 1.64 1.60 1.53 1.51 1.48
0.95 1.07 1.07 1.08 1.21 1.12 0.72 0.68 0.92 1.09 0.87 0.87 0.75 0.68 0.65 0.61 0.68 0.70 0.65 0.55 0.45 0.45 0.45 0.48 0.54 0.48 0.50 0.58 0.70 0.82 0.95 1.08 1.22 1.29 1.42 1.51 1.63 1.66 1.74 2.06 2.12 2.14 2.06 1.82
1.05 1.12 1.13 1.15 1.20 0.95 0.80 0.94 0.99 0.97 0.98 1.02 0.96 0.76 0.68 0.60 0.60 0.64 0.57 0.45 0.35 0.35 0.40 0.44 0.55 0.59 0.59 0.69 0.89 1.08 1.09 1.19 1.36 1.48 1.63 1.73 1.80 1.89 1.99 2.12 2.18 2.22 2.19 1.96
1.11 0.95 1.07 1.16 1.21 1.04 0.91 0.87 0.95 0.92 0.88 0.91 0.89 0.95 0.94 0.78 0.66 0.67 0.59 0.47 0.38 0.36 0.39 0.42 0.53 0.66 0.83 0.93 1.08 1.28 1.26 1.34 1.49 1.58 1.66 1.74 1.83 1.91 2.02 2.13 2.08 2.04 2.01 1.96
1.02 1.07 1.22 1.33 1.27 1.15 1.04 1.00 1.14 1.11 0.98 1.01 0.97 0.99 1.05 0.85 0.67 0.58 0.54 0.52 0.49 0.50 0.53 0.53 0.61 0.77 0.99 1.15 1.26 1.33 1.36 1.50 1.64 1.67 1.74 1.82 1.84 1.86 1.96 2.00 2.05 1.96 1.88 1.82
0.97 1.12 1.29 1.37 1.27 1.37 1.26 1.06 1.14 1.21 1.07 1.13 1.11 1.02 0.85 0.76 0.70 0.62 0.58 0.56 0.56 0.58 0.59 0.63 0.71 0.82 0.99 1.16 1.34 1.45 1.55 1.65 1.76 1.81 1.76 1.82 1.89 1.94 1.98 1.95 1.81 1.68 1.59 1.47

GEFSCGP_prec_meanprecacc_186.txt.gz
Total_Precipitation_Accumulation
0.00 0.01 0.02 0.02 0.02 0.03 0.05 0.07 0.11 0.15 0.14 0.17 0.33 0.51 0.54 0.70 0.97 1.24 1.54 1.82 2.14 2.41 2.83 3.28 3.35 3.55 3.85 4.41 4.73 4.80 4.92 4.80 4.54 4.12 3.67 3.47 3.36 3.30 3.09 2.84 2.60 2.50 2.43 2.50
0.01 0.03 0.01 0.01 0.02 0.03 0.06 0.09 0.13 0.15 0.14 0.15 0.30 0.49 0.60 0.93 1.21 1.26 1.39 1.54 1.74 2.18 2.57 2.90 3.04 3.08 3.44 4.01 4.41 4.53 4.29 4.15 4.02 3.76 3.60 3.56 3.70 3.39 3.06 2.85 2.60 2.42 2.39 2.44
0.03 0.03 0.02 0.02 0.02 0.03 0.05 0.06 0.11 0.16 0.15 0.20 0.31 0.61 0.81 1.05 1.18 1.21 1.28 1.39 1.53 1.89 2.21 2.51 2.58 2.67 2.89 3.00 3.23 3.39 3.54 3.42 3.31 3.27 3.23 3.27 3.42 3.14 2.81 2.61 2.47 2.26 2.16 2.11
0.03 0.03 0.03 0.04 0.04 0.04 0.06 0.07 0.06 0.08 0.15 0.27 0.41 0.92 1.15 1.07 1.12 1.26 1.28 1.30 1.53 1.85 1.83 1.92 2.10 2.27 2.54 2.65 2.79 2.83 2.86 2.96 2.95 2.96 2.83 2.65 2.54 2.40 2.24 2.24 2.20 2.19 2.09 1.97
0.05 0.04 0.03 0.05 0.05 0.04 0.05 0.05 0.06 0.09 0.18 0.29 0.41 0.71 1.09 1.41 1.46 1.25 1.19 1.14 1.35 1.51 1.42 1.41 1.57 1.70 1.89 2.04 2.26 2.40 2.48 2.55 2.61 2.61 2.46 2.41 2.22 2.15 2.15 2.11 2.07 2.00 1.93 1.89
0.05 0.05 0.04 0.04 0.04 0.04 0.04 0.06 0.12 0.23 0.41 0.64 0.54 0.66 1.05 1.40 1.63 1.33 1.16 1.10 1.20 1.17 1.16 1.28 1.38 1.42 1.55 1.75 1.92 2.06 2.16 2.18 2.27 2.30 2.27 2.19 2.10 2.06 2.00 1.91 1.87 1.85 1.84 1.74
0.12 0.12 0.10 0.06 0.05 0.06 0.06 0.13 0.45 0.81 1.10 1.12 0.72 0.75 1.11 1.12 1.13 1.13 1.10 1.14 1.13 1.04 0.98 1.00 1.08 1.20 1.35 1.52 1.62 1.68 1.80 1.87 1.85 1.88 1.88 1.83 1.86 1.90 1.74 1.63 1.61 1.57 1.44 1.35
0.17 0.24 0.15 0.09 0.09 0.09 0.10 0.15 0.50 0.76 0.82 0.92 0.80 1.07 1.40 1.10 1.01 0.95 1.01 1.09 1.04 0.90 0.83 0.85 0.96 1.00 1.07 1.20 1.35 1.42 1.54 1.62 1.69 1.71 1.66 1.60 1.59 1.56 1.43 1.47 1.43 1.34 1.16 1.09
0.10 0.11 0.08 0.08 0.09 0.11 0.15 0.17 0.23 0.43 0.48 0.69 0.89 1.17 1.33 1.01 0.97 1.06 1.16 1.14 1.06 0.84 0.70 0.67 0.73 0.79 0.78 0.82 0.94 1.10 1.37 1.47 1.55 1.57 1.49 1.37 1.33 1.32 1.26 1.30 1.38 1.29 1.23 1.15
0.06 0.05 0.06 0.07 0.09 0.12 0.15 0.15 0.19 0.36 0.52 0.72 0.85 1.20 1.47 1.32 1.26 1.24 1.28 1.10 0.81 0.64 0.53 0.51 0.52 0.53 0.57 0.63 0.74 0.88 1.05 1.14 1.22 1.33 1.30 1.09 1.17 1.25 1.23 1.20 1.17 1.20 1.20 1.19
0.05 0.04 0.06 0.09 0.12 0.14 0.19 0.21 0.28 0.39 0.42 0.64 0.98 1.17 1.10 1.10 1.11 1.17 1.14 0.92 0.66 0.55 0.45 0.45 0.46 0.49 0.53 0.57 0.67 0.79 0.94 1.05 1.07 1.13 1.19 1.11 1.09 1.15 1.19 1.15 1.11 1.12 1.12 1.14
0.07 0.06 0.10 0.16 0.18 0.17 0.17 0.19 0.28 0.42 0.41 0.45 0.69 0.88 0.61 0.63 0.70 0.78 0.80 0.67 0.55 0.53 0.49 0.52 0.53 0.55 0.55 0.64 0.71 0.78 0.88 0.99 1.03 1.13 1.24 1.27 1.20 1.16 1.17 1.11 1.02 0.98 0.93 0.95
0.11 0.11 0.17 0.37 0.48 0.30 0.19 0.17 0.19 0.24 0.27 0.29 0.51 0.68 0.46 0.52 0.62 0.74 0.80 0.81 0.75 0.66 0.52 0.50 0.56 0.62 0.62 0.70 0.80 0.86 0.97 1.01 1.05 1.20 1.33 1.39 1.26 1.15 1.16 1.10 0.96 0.88 0.84 0.85
0.11 0.14 0.19 0.40 0.52 0.40 0.30 0.23 0.19 0.22 0.31 0.28 0.31 0.46 0.47 0.53 0.61 0.69 0.75 0.78 0.71 0.61 0.51 0.47 0.53 0.58 0.66 0.74 0.78 0.79 0.81 0.89 0.99 1.03 1.16 1.28 1.25 1.10 0.98 0.94 0.91 0.89 0.88 0.86
0.09 0.12 0.12 0.16 0.23 0.30 0.32 0.27 0.21 0.17 0.21 0.34 0.32 0.36 0.45 0.54 0.54 0.63 0.67 0.61 0.62 0.56 0.55 0.54 0.56 0.59 0.64 0.66 0.63 0.61 0.56 0.62 0.71 0.80 0.88 0.97 0.94 0.91 0.87 0.80 0.73 0.76 0.83 0.81
0.16 0.17 0.16 0.15 0.18 0.22 0.25 0.25 0.18 0.14 0.12 0.15 0.27 0.44 0.47 0.49 0.53 0.55 0.56 0.59 0.60 0.67 0.71 0.71 0.70 0.71 0.63 0.60 0.55 0.51 0.48 0.52 0.63 0.73 0.77 0.84 0.86 0.80 0.73 0.70 0.66 0.66 0.73 0.81
0.34 0.30 0.27 0.24 0.21 0.26 0.31 0.25 0.19 0.14 0.12 0.14 0.30 0.55 0.51 0.50 0.54 0.59 0.65 0.71 0.62 0.60 0.64 0.69 0.67 0.65 0.53 0.50 0.50 0.50 0.52 0.53 0.56 0.66 0.77 0.84 0.89 0.86 0.73 0.64 0.70 0.70 0.76 0.82
0.43 0.46 0.39 0.34 0.40 0.55 0.37 0.23 0.20 0.21 0.20 0.20 0.25 0.34 0.41 0.51 0.53 0.48 0.53 0.65 0.66 0.62 0.66 0.67 0.62 0.59 0.55 0.51 0.50 0.48 0.46 0.48 0.52 0.58 0.66 0.76 0.84 0.84 0.81 0.77 0.79 0.85 0.91 0.94
0.33 0.48 0.49 0.47 0.55 0.48 0.40 0.33 0.31 0.35 0.35 0.32 0.40 0.38 0.41 0.47 0.49 0.51 0.42 0.45 0.46 0.58 0.59 0.62 0.64 0.68 0.71 0.63 0.65 0.64 0.59 0.59 0.65 0.70 0.77 0.75 0.80 0.88 0.93 0.92 0.93 0.98 1.03 1.04
0.41 0.52 0.64 0.59 0.73 0.74 0.62 0.50 0.44 0.46 0.74 0.55 0.54 0.55 0.57 0.57 0.67 0.74 0.52 0.38 0.41 0.50 0.54 0.62 0.61 0.57 0.64 0.67 0.77 0.83 0.83 0.82 0.88 0.95 1.02 1.03 1.08 1.11 1.08 1.17 1.27 1.28 1.28 1.20
0.84 0.85 0.77 0.76 0.88 0.90 0.71 0.59 0.53 0.88 1.04 0.65 0.62 0.68 0.67 0.69 0.77 0.72 0.60 0.48 0.54 0.47 0.48 0.56 0.66 0.63 0.63 0.69 0.80 0.93 1.01 0.98 1.04 1.10 1.19 1.29 1.38 1.50 1.58 1.70 1.65 1.59 1.57 1.55
0.97 1.08 1.07 1.08 1.22 1.12 0.72 0.69 0.93 1.10 0.88 0.89 0.79 0.72 0.67 0.63 0.69 0.72 0.67 0.60 0.52 0.52 0.50 0.55 0.67 0.66 0.67 0.73 0.82 0.91 1.02 1.12 1.25 1.34 1.46 1.56 1.69 1.73 1.82 2.15 2.20 2.21 2.12 1.88
1.07 1.13 1.14 1.15 1.20 0.95 0.81 0.95 1.00 0.99 1.00 1.05 1.00 0.80 0.73 0.64 0.63 0.68 0.61 0.51 0.42 0.41 0.45 0.50 0.65 0.73 0.72 0.78 0.98 1.16 1.16 1.25 1.41 1.53 1.67 1.80 1.88 1.98 2.11 2.24 2.28 2.30 2.25 2.01
1.13 0.96 1.08 1.17 1.22 1.05 0.92 0.89 0.97 0.96 0.93 0.95 0.94 1.00 0.99 0.84 0.72 0.72 0.65 0.53 0.45 0.42 0.45 0.48 0.60 0.75 0.91 0.99 1.14 1.33 1.31 1.38 1.52 1.62 1.71 1.79 1.88 1.98 2.13 2.28 2.20 2.13 2.08 2.02
1.04 1.10 1.23 1.34 1.28 1.16 1.05 1.02 1.16 1.15 1.03 1.06 1.02 1.04 1.11 0.91 0.73 0.64 0.61 0.60 0.58 0.57 0.59 0.59 0.66 0.81 1.03 1.20 1.31 1.37 1.39 1.52 1.67 1.69 1.76 1.84 1.88 1.90 2.01 2.08 2.15 2.04 1.97 1.92
0.99 1.15 1.32 1.39 1.29 1.39 1.28 1.07 1.16 1.25 1.12 1.17 1.16 1.08 0.90 0.82 0.76 0.68 0.64 0.63 0.62 0.64 0.65 0.68 0.75 0.86 1.02 1.19 1.36 1.47 1.56 1.66 1.77 1.81 1.77 1.83 1.92 1.98 2.02 2.00 1.88 1.77 1.71 1.61

GEFSCGP_prec_meanprecacc_192.txt.gz
Total_Precipitation_Accumulation
0.00 0.01 0.02 0.02 0.02 0.03 0.05 0.07 0.11 0.15 0.14 0.17 0.33 0.51 0.54 0.70 0.97 1.24 1.54 1.82 2.16 2.46 2.88 3.33 3.39 3.58 3.87 4.42 4.74 4.81 4.94 4.83 4.55 4.13 3.69 3.48 3.37 3.32 3.12 2.86 2.63 2.55 2.50 2.60
0.01 0.03 0.01 0.01 0.02 0.03 0.06 0.09 0.13 0.15 0.14 0.15 0.30 0.49 0.60 0.93 1.21 1.26 1.39 1.54 1.75 2.18 2.58 2.91 3.06 3.11 3.46 4.02 4.43 4.56 4.32 4.19 4.05 3.77 3.62 3.58 3.73 3.42 3.09 2.88 2.63 2.46 2.44 2.53
0.03 0.03 0.02 0.02 0.02 0.03 0.05 0.06 0.11 0.16 0.15 0.20 0.31 0.61 0.81 1.05 1.18 1.21 1.28 1.39 1.54 1.89 2.21 2.51 2.59 2.69 2.90 3.02 3.25 3.42 3.58 3.47 3.36 3.31 3.27 3.30 3.45 3.17 2.84 2.63 2.50 2.30 2.20 2.16
0.03 0.03 0.03 0.04 0.04 0.04 0.06 0.07 0.06 0.08 0.15 0.27 0.41 0.92 1.15 1.07 1.12 1.26 1.28 1.31 1.53 1.86 1.83 1.92 2.10 2.28 2.56 2.66 2.82 2.88 2.92 3.01 3.00 3.03 2.89 2.71 2.60 2.45 2.31 2.30 2.25 2.24 2.14 2.03
0.05 0.04 0.03 0.05 0.05 0.04 0.05 0.05 0.06 0.09 0.18 0.29 0.41 0.71 1.09 1.41 1.46 1.25 1.19 1.14 1.35 1.51 1.42 1.41 1.57 1.71 1.91 2.05 2.28 2.44 2.53 2.59 2.67 2.67 2.54 2.51 2.30 2.25 2.25 2.20 2.16 2.09 2.02 1.97
0.05 0.05 0.04 0.04 0.04 0.04 0.04 0.06 0.12 0.23 0.41 0.64 0.54 0.66 1.05 1.40 1.63 1.33 1.16 1.10 1.20 1.17 1.16 1.28 1.38 1.43 1.56 1.77 1.95 2.09 2.21 2.23 2.33 2.37 2.34 2.28 2.20 2.17 2.09 2.01 1.97 1.94 1.93 1.81
0.12 0.12 0.10 0.06 0.05 0.06 0.06 0.13 0.45 0.81 1.10 1.12 0.72 0.75 1.11 1.12 1.13 1.13 1.10 1.14 1.13 1.04 0.98 1.00 1.08 1.21 1.36 1.55 1.66 1.72 1.84 1.91 1.91 1.93 1.96 1.91 1.95 2.01 1.84 1.71 1.70 1.66 1.52 1.40
0.17 0.24 0.15 0.09 0.09 0.09 0.10 0.15 0.50 0.76 0.82 0.92 0.80 1.07 1.40 1.10 1.01 0.95 1.01 1.09 1.05 0.90 0.84 0.85 0.96 1.01 1.08 1.22 1.37 1.44 1.57 1.66 1.77 1.78 1.75 1.70 1.68 1.66 1.50 1.53 1.48 1.41 1.23 1.15
0.10 0.11 0.08 0.08 0.09 0.11 0.15 0.17 0.23 0.43 0.48 0.69 0.89 1.17 1.33 1.01 0.97 1.06 1.16 1.15 1.07 0.85 0.70 0.67 0.74 0.80 0.79 0.84 0.96 1.12 1.40 1.53 1.61 1.64 1.59 1.47 1.42 1.39 1.34 1.39 1.45 1.35 1.29 1.19
0.06 0.05 0.06 0.07 0.09 0.12 0.15 0.15 0.19 0.36 0.52 0.72 0.85 1.20 1.47 1.32 1.26 1.24 1.29 1.10 0.81 0.65 0.54 0.51 0.54 0.55 0.58 0.63 0.75 0.89 1.07 1.17 1.26 1.37 1.39 1.18 1.24 1.31 1.28 1.27 1.22 1.23 1.24 1.23
0.05 0.04 0.06 0.09 0.12 0.14 0.19 0.21 0.28 0.39 0.42 0.64 0.98 1.17 1.10 1.10 1.11 1.17 1.14 0.93 0.67 0.55 0.46 0.46 0.48 0.52 0.54 0.57 0.68 0.81 0.96 1.07 1.10 1.16 1.22 1.15 1.13 1.19 1.22 1.19 1.14 1.14 1.15 1.18
0.07 0.06 0.10 0.16 0.18 0.17 0.17 0.19 0.28 0.42 0.41 0.45 0.69 0.88 0.61 0.63 0.70 0.78 0.80 0.67 0.55 0.53 0.50 0.53 0.55 0.57 0.57 0.65 0.73 0.80 0.90 1.01 1.05 1.16 1.27 1.31 1.25 1.20 1.20 1.16 1.06 1.01 0.98 1.00
0.11 0.11 0.17 0.38 0.48 0.30 0.19 0.17 0.19 0.24 0.27 0.29 0.51 0.68 0.47 0.52 0.62 0.74 0.80 0.81 0.76 0.67 0.52 0.50 0.57 0.63 0.63 0.72 0.82 0.89 1.00 1.04 1.08 1.23 1.39 1.47 1.33 1.21 1.23 1.17 1.03 0.94 0.90 0.90
0.11 0.15 0.19 0.40 0.52 0.40 0.30 0.23 0.19 0.22 0.31 0.28 0.31 0.46 0.47 0.53 0.61 0.69 0.75 0.78 0.71 0.62 0.51 0.48 0.53 0.59 0.67 0.75 0.80 0.82 0.84 0.92 1.02 1.06 1.22 1.36 1.32 1.17 1.06 1.02 1.00 0.98 0.96 0.93
0.09 0.12 0.12 0.16 0.23 0.30 0.32 0.27 0.21 0.18 0.21 0.34 0.32 0.36 0.45 0.54 0.54 0.63 0.68 0.62 0.62 0.56 0.55 0.55 0.57 0.61 0.65 0.68 0.66 0.63 0.59 0.66 0.76 0.84 0.93 1.05 1.03 1.00 0.96 0.90 0.83 0.86 0.91 0.88
0.16 0.17 0.16 0.15 0.18 0.22 0.25 0.25 0.18 0.14 0.12 0.15 0.27 0.44 0.47 0.49 0.53 0.55 0.56 0.59 0.61 0.67 0.71 0.72 0.71 0.74 0.66 0.63 0.59 0.54 0.52 0.56 0.69 0.79 0.83 0.91 0.98 0.90 0.82 0.80 0.74 0.74 0.80 0.87
0.34 0.30 0.27 0.24 0.21 0.26 0.31 0.25 0.19 0.14 0.12 0.14 0.30 0.55 0.51 0.50 0.54 0.59 0.66 0.73 0.63 0.61 0.64 0.70 0.68 0.67 0.56 0.54 0.53 0.53 0.56 0.56 0.61 0.71 0.84 0.93 0.98 0.93 0.82 0.75 0.79 0.79 0.84 0.89
0.43 0.46 0.39 0.34 0.40 0.55 0.37 0.23 0.20 0.21 0.20 0.20 0.25 0.34 0.41 0.51 0.53 0.48 0.53 0.66 0.67 0.64 0.67 0.67 0.63 0.60 0.56 0.54 0.54 0.52 0.50 0.52 0.56 0.61 0.70 0.83 0.92 0.89 0.87 0.85 0.87 0.92 0.98 1.00
0.33 0.48 0.49 0.47 0.55 0.48 0.40 0.33 0.31 0.35 0.36 0.32 0.40 0.38 0.41 0.47 0.49 0.51 0.43 0.46 0.47 0.59 0.60 0.63 0.64 0.69 0.71 0.64 0.67 0.68 0.62 0.64 0.71 0.75 0.80 0.77 0.85 0.94 0.98 0.98 0.97 1.02 1.07 1.07
0.41 0.52 0.64 0.59 0.73 0.74 0.62 0.50 0.44 0.46 0.74 0.55 0.54 0.56 0.57 0.57 0.68 0.75 0.53 0.39 0.41 0.51 0.55 0.62 0.61 0.57 0.64 0.67 0.79 0.85 0.86 0.84 0.90 0.98 1.05 1.06 1.10 1.14 1.12 1.22 1.31 1.34 1.33 1.25
0.85 0.85 0.77 0.76 0.88 0.90 0.71 0.59 0.53 0.89 1.04 0.65 0.63 0.69 0.67 0.70 0.78 0.73 0.61 0.49 0.54 0.48 0.48 0.56 0.66 0.63 0.64 0.70 0.82 0.96 1.04 1.01 1.06 1.13 1.22 1.32 1.41 1.53 1.62 1.75 1.71 1.66 1.65 1.63
0.98 1.09 1.08 1.09 1.22 1.12 0.72 0.69 0.93 1.11 0.88 0.89 0.79 0.73 0.68 0.64 0.69 0.73 0.68 0.61 0.53 0.53 0.51 0.56 0.68 0.67 0.69 0.76 0.86 0.96 1.06 1.16 1.29 1.38 1.50 1.59 1.72 1.76 1.86 2.20 2.24 2.26 2.18 1.94
1.08 1.14 1.14 1.16 1.21 0.95 0.81 0.95 1.00 0.99 1.01 1.05 1.00 0.81 0.73 0.65 0.64 0.69 0.62 0.52 0.44 0.43 0.47 0.52 0.67 0.75 0.74 0.81 1.01 1.20 1.21 1.29 1.45 1.56 1.71 1.83 1.90 2.01 2.15 2.31 2.34 2.35 2.29 2.06
1.13 0.97 1.09 1.18 1.23 1.05 0.92 0.89 0.97 0.96 0.93 0.96 0.94 1.00 1.00 0.85 0.73 0.74 0.66 0.55 0.48 0.45 0.47 0.51 0.63 0.77 0.93 1.02 1.18 1.36 1.36 1.44 1.56 1.66 1.74 1.84 1.94 2.05 2.20 2.35 2.29 2.22 2.15 2.08
1.04 1.11 1.25 1.35 1.29 1.17 1.05 1.02 1.17 1.15 1.04 1.07 1.02 1.05 1.11 0.92 0.75 0.66 0.63 0.62 0.61 0.61 0.62 0.62 0.70 0.86 1.07 1.23 1.34 1.39 1.42 1.56 1.71 1.73 1.80 1.89 1.92 1.94 2.04 2.12 2.21 2.09 2.01 1.97
0.99 1.15 1.33 1.41 1.30 1.40 1.28 1.08 1.17 1.26 1.13 1.20 1.17 1.09 0.91 0.83 0.78 0.70 0.67 0.66 0.66 0.67 0.68 0.70 0.78 0.89 1.05 1.22 1.39 1.49 1.59 1.68 1.79 1.83 1.78 1.85 1.93 1.99 2.03 2.01 1.89 1.80 1.73 1.64